Flag for Austria Weather past 2 weeks in Bruck an der Leitha, Lower Austria, Austria

Now
68 °F

Scattered clouds.


Feels Like: 68 °F
Forecast: 60 / 78 °F
Wind: 7 mph from Northwest

Location: Wien / Schwechat-Flughafen

Current Time: Sep 2, 2015 at 8:27:08 AM

Latest Report: Sep 2, 2015 at 7:00 AM


Visibility: 28 mi

Pressure: 29.92 "Hg

Humidity: 75%

Dew point: 60 °F

Location of Bruck an der LeithaLocation

Historic Weather in Bruck an der Leitha — Graph

°F

Bruck an der Leitha temperature yesterday

Maximum temperature yesterday: 90 °F (at 4:00 PM)
Minimum temperature yesterday: 61 °F (at 7:00 AM)
Average temperature yesterday: 77 °F

Past Weeks' High & Low Weather Summary

 TemperatureHumidityPressure
High93 °F (Aug 31, 3:00 PM)99% (Aug 28, 7:00 AM)30.24 "Hg (Aug 28, 7:00 AM)
Low51 °F (Aug 26, 5:00 AM)19% (Aug 31, 5:00 PM)29.70 "Hg (Sep 1, 8:00 PM)
Average70 °F68%30.02 "Hg
* Reported Aug 18 7:00 AM — Sep 2 7:00 AM, Bruck an der Leitha, Weather by CustomWeather, © 2015

Note: Actual official high and low records may vary slightly from our data, if they occured in-between our weather recording intervals... More about our weather records

Advertising

Bruck an der Leitha weather history for previous 24 hours

 ConditionsComfort  
Time TempWeatherWind HumidityBarometerVisibility
7:00 AM
Wed, Sep 2
68 °FScattered clouds.7 mph75%29.92 "Hg28 mi
6:00 AM69 °FPassing clouds.8 mph72%29.89 "Hg31 mi
5:00 AM71 °FPassing clouds.9 mph67%29.88 "Hg31 mi
4:00 AM72 °FPassing clouds.12 mph64%29.87 "Hg31 mi
3:00 AM73 °FPassing clouds.8 mph61%29.86 "Hg28 mi
2:00 AM74 °FPassing clouds.12 mph56%29.81 "Hg25 mi
1:00 AM76 °FPassing clouds.15 mph51%29.78 "Hg18 mi
12:00 AM79 °FPassing clouds.14 mph45%29.75 "Hg14 mi
10:00 PM
Tue, Sep 1
73 °FPassing clouds.6 mph60%29.72 "Hg25 mi
9:00 PM79 °FPassing clouds.N/A48%29.71 "Hg22 mi
8:00 PM82 °FPassing clouds.N/A45%29.70 "Hg25 mi
7:00 PM87 °FPassing clouds.N/A38%29.70 "Hg17 mi
6:00 PM89 °FPassing clouds.6 mph34%29.71 "Hg19 mi
5:00 PM89 °FPassing clouds.6 mph34%29.72 "Hg19 mi
4:00 PM90 °FPassing clouds.7 mph35%29.74 "Hg16 mi
3:00 PM89 °FPassing clouds.6 mph35%29.75 "Hg19 mi
2:00 PM89 °FPassing clouds.6 mph39%29.77 "Hg19 mi
1:00 PM87 °FPassing clouds.3 mph38%29.79 "Hg16 mi
12:00 PM85 °FPassing clouds.5 mph46%29.81 "Hg12 mi
11:00 AM81 °FPassing clouds.3 mph51%29.83 "Hg11 mi
10:00 AM78 °FPassing clouds.N/A55%29.83 "Hg12 mi
9:00 AM72 °FSunny.3 mph65%29.84 "Hg17 mi
8:00 AM68 °FSunny.3 mph78%29.85 "Hg14 mi
Weather by CustomWeather, © 2015

See weather overviewHow to use our weather pages